[[{"header":{"parameterUnit":"m.s-1","parameterCategory":2,"la1":30.2991,"la2":30.254,"lo1":-89.0895,"lo2":-89.0444,"dy":0.0017,"dx":0.0017,"nx":28,"ny":28,"refTime":"2024-10-21T09:00:00:Z","depth":"0","parameterNumber":2,"parameterNumberName":"U-component_of_CURRENTS"},"data":[0,0,0,0,0,0,0,0,0,0,0,0,0,0,0,0,0,0,0,0,0,0,0,0,0,0,0,0,0,0,0,0,0,0,0,0,0,0,0,0,0,0,0,0,0,0,0,0,0,0,0,0,0,0,0,0,0,0,0.1841,0.1842,0,0.1863,0.1863,0.1863,0.1863,0.1863,0.1863,0.1863,0.1852,0.1852,0.1851,0,0,0,0,0,0,0,0,0,0,0,0,0,0.1783,0.1784,0.1841,0.1842,0.1842,0.1863,0.1863,0.1863,0.1863,0.1863,0.1863,0.1863,0.1852,0.1852,0.1851,0,0,0,0,0,0,0,0,0,0,0,0,0,0.1804,0.1784,0.1841,0.1847,0.1848,0.1863,0.1863,0.1863,0.1863,0.1863,0.1863,0.1863,0.1852,0.1852,0.1851,0.185,0,0,0.185,0.185,0,0,0,0,0,0,0,0,0.1803,0.1806,0.1845,0.1846,0.1847,0.1862,0.1838,0.1858,0.1863,0.1854,0.1863,0.1863,0.1854,0.1854,0.1854,0.185,0.1849,0.185,0.185,0.185,0.185,0,0,0,0,0,0,0,0.1802,0.1805,0.1847,0.1846,0.1847,0.1842,0.1845,0.1842,0.1852,0.1855,0.1856,0.1862,0.1854,0.1855,0.1854,0.1849,0.185,0.185,0.185,0.185,0.187,0.1871,0,0,0,0,0,0,0.1805,0.1804,0.1846,0.1848,0.1828,0.1844,0.1847,0.1855,0.1852,0.1853,0.1862,0.1862,0.1856,0.1855,0.1854,0.1881,0.185,0.1849,0.1849,0.1869,0.187,0.1871,0,0,0,0,0,0,0.1804,0.1809,0.1846,0.1828,0.1833,0.1845,0.1855,0.1856,0.1859,0.1859,0.1858,0.1865,0.1855,0.1854,0.1859,0.1879,0.1849,0.1849,0.1869,0.187,0.1871,0.1917,0,0,0,0,0,0,0.1802,0.1809,0.1812,0.1829,0.1834,0.186,0.1855,0.1856,0.1864,0.1864,0.1861,0.186,0.1855,0.186,0.1859,0.1878,0.1849,0.1868,0.1869,0.187,0.1914,0.1919,0.1923,0,0,0,0,0,0.18,0.1806,0.1812,0.1817,0.184,0.186,0.1862,0.1869,0.1865,0.187,0.1869,0.186,0.1868,0.186,0.1859,0.1879,0.1867,0.1869,0.187,0.1912,0.1918,0.1923,0,0,0,0,0,0,0.1774,0.1807,0.1814,0.1827,0.1846,0.1861,0.1866,0.187,0.1873,0.1872,0.1866,0.1865,0.188,0.187,0.1861,0.1889,0.1868,0.1869,0.19,0.1905,0.191,0.1917,0.1848,0,0,0,0,0,0.1773,0.1789,0.1817,0.1825,0.1838,0.1852,0.1859,0.1867,0.1875,0.1876,0.1876,0.1877,0.1886,0.1887,0.189,0.19,0.191,0.1913,0.1918,0.1922,0.1927,0.1953,0.196,0.1877,0.1877,0.1877,0,0,0.1763,0.1784,0.1791,0.1822,0.1835,0.1859,0.1855,0.1872,0.189,0.1874,0.1891,0.1892,0.1892,0.191,0.1916,0.1904,0.1956,0.1924,0.1928,0.1931,0.1955,0.1964,0.1971,0.1878,0.1878,0.1878,0,0,0.1759,0.1773,0.1791,0.1813,0.1844,0.1858,0.1865,0.1887,0.1897,0.1914,0.1914,0.1927,0.193,0.1944,0.1949,0.1979,0.1981,0.1978,0.2007,0.2032,0.204,0.2046,0.2092,0.2102,0.198,0.198,0.198,0,0.1745,0.1775,0.1796,0.1824,0.1844,0.1861,0.1885,0.1901,0.1921,0.1935,0.1925,0.1952,0.1951,0.1984,0.1998,0.1991,0.2009,0.1987,0.2039,0.2046,0.2051,0.2097,0.2107,0.1982,0.1982,0.1982,0.1982,0,0.1764,0.1787,0.1798,0.1844,0.1866,0.1887,0.1922,0.1941,0.1952,0.197,0.2001,0.2003,0.2021,0.2026,0.2021,0.2065,0.2068,0.2044,0.2026,0.2063,0.2108,0.2118,0.1986,0.1985,0.1984,0.1984,0,0,0.1732,0.1799,0.1803,0.1828,0.188,0.1899,0.1939,0.1981,0.2008,0.2026,0.2062,0.2082,0.2084,0.209,0.2089,0.211,0.2174,0.2096,0.2096,0.2145,0.225,0.2326,0.2344,0.2157,0.2159,0.216,0.2274,0,0.174,0.1792,0.1826,0.1868,0.1897,0.1934,0.1967,0.2008,0.2039,0.2077,0.2097,0.2126,0.2109,0.2122,0.2142,0.2167,0.2199,0.2147,0.2204,0.2207,0.2272,0.2358,0.2327,0.2432,0.2283,0.2285,0.2286,0,0.1747,0.1786,0.183,0.1888,0.1903,0.1927,0.1988,0.2022,0.2085,0.2112,0.2151,0.217,0.2221,0.2188,0.2259,0.2227,0.2245,0.2258,0.2262,0.2323,0.2301,0.2367,0.2456,0.2388,0.2302,0.23,0.2299,0,0.1718,0.1783,0.1818,0.1839,0.1908,0.1929,0.1962,0.2027,0.2075,0.2138,0.2186,0.223,0.2274,0.2294,0.235,0.2301,0.2434,0.2365,0.2454,0.246,0.2442,0.2444,0.2473,0.2413,0.2413,0.2413,0.2413,0,0.1713,0.1737,0.1803,0.1822,0.1856,0.191,0.1958,0.1998,0.2084,0.2138,0.2198,0.2265,0.2301,0.2386,0.2392,0.2496,0.2477,0.2493,0.2505,0.2461,0.2463,0.2407,0.2361,0.2417,0.2416,0.2415,0.2415,0,0.167,0.1718,0.1754,0.1823,0.1842,0.1862,0.1957,0.1995,0.2084,0.2161,0.2191,0.2323,0.244,0.2509,0.2577,0.2581,0.2592,0.2675,0.2645,0.2652,0.2646,0.2604,0.2571,0.2479,0.2777,0.278,0.2782,0,0.1652,0.1668,0.1736,0.1755,0.1781,0.1832,0.1865,0.1969,0.2017,0.2191,0.222,0.2398,0.252,0.2714,0.2767,0.2856,0.2712,0.2848,0.2744,0.2683,0.2643,0.2501,0.2412,0.2738,0.274,0.2741,0.2742,0,0.1608,0.1629,0.166,0.1703,0.1734,0.1783,0.1839,0.1896,0.2011,0.2122,0.2281,0.2417,0.2651,0.2777,0.2932,0.2951,0.2735,0.2882,0.2808,0.2631,0.2486,0.239,0.2636,0.2755,0.2754,0.2753,0.2752,0.2752,0.1556,0.1564,0.1604,0.1638,0.1677,0.1716,0.1737,0.1826,0.1936,0.2069,0.2246,0.2427,0.2684,0.2932,0.2942,0.296,0.2859,0.2865,0.2828,0.2695,0.2579,0.2889,0.3027,0.3027,0.3027,0.3027,0.3027,0,0.1489,0.1512,0.1541,0.1575,0.1587,0.1638,0.1699,0.1721,0.1814,0.1993,0.2155,0.2468,0.2673,0.2829,0.2988,0.2909,0.2716,0.282,0.2573,0.2487,0.2771,0.2744,0.284,0.284,0.284,0.284,0.284,0.284,0.145,0.1453,0.1477,0.1476,0.1501,0.1495,0.1519,0.1576,0.1686,0.189,0.2066,0.2254,0.2626,0.291,0.2923,0.2839,0.2558,0.2516,0.2417,0.2601,0.2598,0.2596,0.2558,0.2614,0.2614,0.203,0.2026,0.2023]},{"header":{"parameterUnit":"m.s-1","parameterCategory":2,"la1":30.2991,"la2":30.254,"lo1":-89.0895,"lo2":-89.0444,"dy":0.0017,"dx":0.0017,"nx":28,"ny":28,"refTime":"2024-10-21T09:00:00:Z","depth":"0","parameterNumber":3,"parameterNumberName":"V-component_of_CURRENTS"},"data":[0,0,0,0,0,0,0,0,0,0,0,0,0,0,0,0,0,0,0,0,0,0,0,0,0,0,0,0,0,0,0,0,0,0,0,0,0,0,0,0,0,0,0,0,0,0,0,0,0,0,0,0,0,0,0,0,0,0,-0.0349,-0.0349,0,-0.0381,-0.0381,-0.0382,-0.0409,-0.0409,-0.0409,-0.0409,-0.0468,-0.047,-0.0471,0,0,0,0,0,0,0,0,0,0,0,0,0,-0.0347,-0.0347,-0.0349,-0.0349,-0.035,-0.0381,-0.0381,-0.0382,-0.0409,-0.0409,-0.0409,-0.0409,-0.0468,-0.0469,-0.0471,0,0,0,0,0,0,0,0,0,0,0,0,0,-0.0361,-0.0347,-0.0349,-0.0366,-0.0368,-0.0381,-0.0381,-0.0382,-0.0408,-0.0409,-0.0409,-0.0409,-0.0467,-0.0469,-0.0471,-0.0477,0,0,-0.0478,-0.0478,0,0,0,0,0,0,0,0,-0.036,-0.0361,-0.0363,-0.0365,-0.0367,-0.039,-0.0402,-0.0415,-0.0408,-0.0394,-0.0409,-0.041,-0.0444,-0.0448,-0.0454,-0.048,-0.0483,-0.0478,-0.0479,-0.048,-0.048,0,0,0,0,0,0,0,-0.0359,-0.036,-0.0362,-0.0363,-0.0366,-0.0384,-0.0386,-0.0405,-0.0418,-0.0395,-0.0397,-0.0399,-0.0445,-0.0452,-0.0456,-0.0484,-0.0478,-0.0479,-0.0481,-0.0482,-0.0532,-0.0532,0,0,0,0,0,0,-0.0351,-0.0359,-0.0361,-0.0363,-0.0363,-0.0384,-0.0386,-0.0383,-0.0417,-0.0422,-0.0399,-0.04,-0.0448,-0.0453,-0.0458,-0.0483,-0.048,-0.0482,-0.0483,-0.0532,-0.0532,-0.0532,0,0,0,0,0,0,-0.0351,-0.0351,-0.036,-0.0362,-0.0364,-0.0383,-0.038,-0.0384,-0.039,-0.0419,-0.0425,-0.0401,-0.0449,-0.0455,-0.0473,-0.0485,-0.0483,-0.0485,-0.0532,-0.0532,-0.0532,-0.0524,0,0,0,0,0,0,-0.0351,-0.035,-0.0345,-0.0361,-0.0364,-0.0364,-0.0379,-0.0384,-0.039,-0.0392,-0.0423,-0.0429,-0.0449,-0.047,-0.0475,-0.0488,-0.0486,-0.0532,-0.0532,-0.0532,-0.0524,-0.0524,-0.0523,0,0,0,0,0,-0.035,-0.0338,-0.0344,-0.0345,-0.0355,-0.0363,-0.0367,-0.0383,-0.039,-0.039,-0.0412,-0.0428,-0.0475,-0.0471,-0.0477,-0.0491,-0.0532,-0.0532,-0.0532,-0.0524,-0.0524,-0.0524,0,0,0,0,0,0,-0.0328,-0.034,-0.0347,-0.0337,-0.0349,-0.0368,-0.0367,-0.0379,-0.0395,-0.0398,-0.0427,-0.0434,-0.0457,-0.047,-0.0465,-0.0506,-0.0507,-0.0508,-0.0499,-0.0499,-0.0499,-0.0496,-0.0488,0,0,0,0,0,-0.0321,-0.0318,-0.0333,-0.0325,-0.033,-0.0348,-0.0353,-0.0364,-0.0381,-0.0388,-0.0411,-0.0436,-0.0462,-0.0476,-0.0497,-0.0516,-0.0536,-0.0529,-0.0529,-0.0529,-0.053,-0.0581,-0.0586,-0.0533,-0.0533,-0.0533,0,0,-0.0309,-0.0316,-0.0313,-0.0321,-0.0331,-0.0337,-0.0352,-0.0356,-0.0366,-0.0392,-0.0411,-0.0434,-0.0466,-0.049,-0.0502,-0.0504,-0.055,-0.0529,-0.0528,-0.0531,-0.0582,-0.0588,-0.0592,-0.0533,-0.0533,-0.0533,0,0,-0.0287,-0.029,-0.0285,-0.0295,-0.0308,-0.0322,-0.0322,-0.0341,-0.0355,-0.0374,-0.04,-0.0429,-0.046,-0.0492,-0.0511,-0.052,-0.0546,-0.0525,-0.0526,-0.0575,-0.0581,-0.0585,-0.06,-0.0606,-0.0527,-0.0527,-0.0527,0,-0.0272,-0.0267,-0.0284,-0.0285,-0.0289,-0.0314,-0.0311,-0.0332,-0.0356,-0.0368,-0.0377,-0.0437,-0.0465,-0.0506,-0.0514,-0.0522,-0.0541,-0.0526,-0.0576,-0.0582,-0.0587,-0.0601,-0.0608,-0.0527,-0.0527,-0.0527,-0.0527,0,-0.0253,-0.0251,-0.0247,-0.0259,-0.0268,-0.0266,-0.0296,-0.0309,-0.033,-0.0353,-0.0392,-0.0434,-0.0469,-0.0488,-0.0507,-0.0556,-0.0553,-0.057,-0.0578,-0.0592,-0.0605,-0.0612,-0.0526,-0.0526,-0.0526,-0.0526,0,0,-0.0207,-0.0228,-0.0226,-0.0226,-0.0252,-0.0251,-0.0275,-0.0299,-0.0304,-0.0352,-0.0367,-0.0436,-0.0458,-0.0481,-0.0514,-0.0564,-0.0615,-0.0581,-0.0584,-0.0596,-0.0701,-0.0648,-0.065,-0.0644,-0.0646,-0.0647,-0.069,0,-0.0184,-0.0176,-0.0199,-0.019,-0.0186,-0.022,-0.0233,-0.0262,-0.0291,-0.0313,-0.0381,-0.0403,-0.0456,-0.0464,-0.0531,-0.0586,-0.0637,-0.06,-0.0685,-0.0687,-0.064,-0.0659,-0.0614,-0.0644,-0.0697,-0.0698,-0.0699,0,-0.0155,-0.0154,-0.0141,-0.0148,-0.0148,-0.0151,-0.0167,-0.0183,-0.0234,-0.0257,-0.0313,-0.0352,-0.0427,-0.0464,-0.0595,-0.0569,-0.0638,-0.069,-0.0693,-0.0653,-0.0648,-0.0643,-0.0656,-0.0807,-0.0711,-0.071,-0.0709,0,-0.0105,-0.011,-0.0095,-0.0098,-0.0114,-0.0114,-0.0125,-0.0163,-0.0157,-0.0216,-0.0209,-0.0319,-0.0334,-0.0468,-0.0569,-0.059,-0.0696,-0.0737,-0.0756,-0.0752,-0.0735,-0.0726,-0.0906,-0.0841,-0.0841,-0.084,-0.084,0,-0.0067,-0.0051,-0.0067,-0.0055,-0.0027,-0.0063,-0.0038,-0.0069,-0.0085,-0.0059,-0.0169,-0.0151,-0.0337,-0.041,-0.0546,-0.0652,-0.0682,-0.0757,-0.0767,-0.0726,-0.0717,-0.0862,-0.0955,-0.0842,-0.0842,-0.0841,-0.0841,0,-0.0011,-0.0025,-0.0001,-0.0007,-0.0001,0.002,0.0038,0.0058,0.0026,0.006,0.0053,-0.0018,-0.01,-0.0271,-0.0446,-0.0578,-0.0785,-0.0743,-0.0659,-0.0659,-0.0827,-0.0918,-0.1099,-0.1161,-0.0791,-0.079,-0.0789,0,0.0019,0.0037,0.0052,0.008,0.0083,0.0111,0.014,0.0117,0.0151,0.0163,0.0197,0.0143,0.015,-0.0079,-0.0321,-0.0538,-0.0715,-0.0662,-0.0711,-0.0831,-0.0943,-0.1021,-0.1067,-0.0683,-0.0681,-0.068,-0.0679,0,0.0084,0.0088,0.0111,0.017,0.0206,0.025,0.029,0.0343,0.0338,0.0398,0.0485,0.0502,0.0304,0.014,-0.0166,-0.0351,-0.076,-0.064,-0.0812,-0.091,-0.0964,-0.1026,-0.064,-0.0667,-0.0668,-0.0669,-0.067,-0.067,0.0141,0.0174,0.021,0.0269,0.0315,0.0392,0.0457,0.0533,0.0641,0.0761,0.0742,0.0826,0.0522,0.0137,-0.0135,-0.0613,-0.0653,-0.0768,-0.0877,-0.095,-0.0998,-0.0558,-0.0565,-0.0566,-0.0566,-0.0567,-0.0567,0,0.0218,0.0252,0.0311,0.038,0.0452,0.0456,0.0565,0.0661,0.0836,0.097,0.1087,0.1015,0.0639,0.0185,-0.0442,-0.0785,-0.0958,-0.1001,-0.114,-0.1183,-0.0829,-0.0811,-0.0815,-0.0815,-0.0815,-0.0814,-0.0814,-0.0814,0.0262,0.0336,0.0362,0.0492,0.0546,0.0662,0.0738,0.0904,0.1036,0.1265,0.1352,0.1377,0.1038,-0.0116,-0.0903,-0.1101,-0.1379,-0.1418,-0.1571,-0.1365,-0.1353,-0.1342,-0.1349,-0.1465,-0.1466,-0.1869,-0.1873,-0.1876]}],[{"header":{"parameterUnit":"m.s-1","parameterCategory":2,"la1":30.2991,"la2":30.254,"lo1":-89.0895,"lo2":-89.0444,"dy":0.0017,"dx":0.0017,"nx":28,"ny":28,"refTime":"2024-10-21T09:00:00:Z","depth":"2","parameterNumber":2,"parameterNumberName":"U-component_of_CURRENTS"},"data":[0,0,0,0,0,0,0,0,0,0,0,0,0,0,0,0,0,0,0,0,0,0,0,0,0,0,0,0,0,0,0,0,0,0,0,0,0,0,0,0,0,0,0,0,0,0,0,0,0,0,0,0,0,0,0,0,0,0,0.1808,0.1809,0,0.1829,0.1829,0.1829,0.1838,0.1838,0.1838,0.1838,0.1841,0.1841,0.1841,0,0,0,0,0,0,0,0,0,0,0,0,0,0.1768,0.1769,0.1808,0.1809,0.1809,0.1829,0.1829,0.1829,0.1838,0.1838,0.1838,0.1838,0.1841,0.1841,0.1841,0,0,0,0,0,0,0,0,0,0,0,0,0,0.1785,0.1769,0.1808,0.1817,0.1818,0.1829,0.1829,0.1829,0.1838,0.1838,0.1838,0.1838,0.1841,0.1841,0.1841,0.1837,0,0,0.1841,0.1841,0,0,0,0,0,0,0,0,0.1784,0.1786,0.1815,0.1817,0.1818,0.1832,0.1816,0.1831,0.1838,0.1829,0.1838,0.1838,0.1837,0.1838,0.1839,0.1837,0.1837,0.1841,0.1841,0.1841,0.1841,0,0,0,0,0,0,0,0.1783,0.1786,0.1815,0.1816,0.1817,0.1817,0.182,0.1819,0.183,0.183,0.1831,0.1835,0.1838,0.1839,0.1839,0.1837,0.1841,0.1841,0.1841,0.1841,0.1873,0.1874,0,0,0,0,0,0,0.1784,0.1784,0.1814,0.1816,0.1803,0.1818,0.1821,0.1826,0.1831,0.1832,0.1835,0.1836,0.1839,0.1839,0.1839,0.1882,0.1841,0.184,0.184,0.1872,0.1873,0.1874,0,0,0,0,0,0,0.1783,0.1787,0.1813,0.1802,0.1805,0.1819,0.1825,0.1827,0.1835,0.1836,0.1836,0.1843,0.1839,0.1839,0.1851,0.188,0.184,0.184,0.1871,0.1873,0.1874,0.1936,0,0,0,0,0,0,0.1782,0.1786,0.1791,0.1802,0.1806,0.1828,0.1825,0.1827,0.1838,0.1839,0.1842,0.1842,0.1839,0.1851,0.1851,0.1879,0.184,0.187,0.1872,0.1873,0.1933,0.194,0.1945,0,0,0,0,0,0.178,0.1786,0.1791,0.1795,0.1812,0.1829,0.1831,0.1839,0.1838,0.1846,0.185,0.1842,0.1862,0.1851,0.1851,0.188,0.1869,0.1871,0.1873,0.1931,0.1939,0.1945,0,0,0,0,0,0,0.1764,0.1788,0.1793,0.1804,0.182,0.1831,0.1839,0.1843,0.1852,0.1854,0.185,0.1851,0.1874,0.1863,0.1852,0.1894,0.1866,0.1868,0.1909,0.1917,0.1923,0.1936,0.184,0,0,0,0,0,0.1765,0.1779,0.1798,0.1806,0.1816,0.1828,0.1835,0.1844,0.1853,0.1857,0.1861,0.1867,0.188,0.1887,0.1892,0.191,0.1922,0.1929,0.1935,0.194,0.1951,0.199,0.2001,0.1881,0.1881,0.1881,0,0,0.1758,0.1775,0.1781,0.1805,0.1816,0.1841,0.1833,0.185,0.1874,0.1856,0.1885,0.1886,0.1888,0.1916,0.1925,0.1913,0.1983,0.1943,0.1948,0.1955,0.1993,0.2005,0.2016,0.1882,0.1882,0.1882,0,0,0.176,0.1771,0.1788,0.1808,0.1834,0.1848,0.1856,0.1876,0.1889,0.1913,0.1913,0.1935,0.1942,0.1963,0.1971,0.2011,0.2012,0.2008,0.2054,0.2092,0.2103,0.2112,0.2155,0.2168,0.2014,0.2014,0.2014,0,0.1751,0.1778,0.1794,0.182,0.184,0.1855,0.1882,0.1901,0.1923,0.1942,0.193,0.1971,0.1971,0.202,0.2038,0.2028,0.2047,0.2028,0.2102,0.2111,0.212,0.2162,0.2175,0.2017,0.2017,0.2016,0.2016,0,0.1773,0.1796,0.1808,0.1853,0.1876,0.1899,0.1933,0.1959,0.1974,0.1995,0.2039,0.2044,0.2071,0.2078,0.2071,0.2136,0.213,0.2105,0.2087,0.2136,0.2177,0.219,0.2022,0.202,0.2019,0.2019,0,0,0.1747,0.1811,0.1817,0.1842,0.1896,0.1915,0.1967,0.2016,0.2052,0.2078,0.2126,0.2156,0.2161,0.217,0.2169,0.2204,0.2285,0.2184,0.2185,0.2234,0.238,0.2348,0.2359,0.2273,0.2275,0.2277,0.2389,0,0.1759,0.1812,0.1846,0.1896,0.1924,0.1965,0.201,0.2059,0.2096,0.2146,0.2175,0.2213,0.2196,0.2211,0.2249,0.2273,0.2319,0.2258,0.2319,0.2321,0.2292,0.2373,0.2199,0.2282,0.2402,0.2404,0.2405,0,0.1769,0.1807,0.1857,0.1922,0.1938,0.1972,0.2047,0.2089,0.2168,0.2201,0.2254,0.2273,0.2341,0.2306,0.2397,0.2358,0.2381,0.2396,0.24,0.2357,0.2313,0.2249,0.2301,0.2426,0.2425,0.2423,0.2422,0,0.1741,0.1811,0.185,0.1874,0.1951,0.1982,0.2023,0.2101,0.2153,0.2235,0.2285,0.2352,0.2399,0.2437,0.2488,0.2443,0.2588,0.2524,0.2524,0.2522,0.238,0.2361,0.2596,0.2596,0.2596,0.2595,0.2595,0,0.1736,0.1766,0.1838,0.1859,0.1906,0.1963,0.2023,0.2077,0.2174,0.2234,0.2305,0.2376,0.2434,0.252,0.2535,0.2593,0.2634,0.2559,0.2557,0.2397,0.238,0.2496,0.2483,0.2599,0.2598,0.2598,0.2597,0,0.169,0.1743,0.1785,0.1866,0.189,0.1917,0.2018,0.206,0.2163,0.2247,0.228,0.2426,0.2518,0.2588,0.2672,0.2661,0.2708,0.2718,0.2536,0.251,0.2597,0.2586,0.2706,0.2706,0.2706,0.2706,0.2706,0,0.1672,0.1691,0.1769,0.1791,0.1823,0.1881,0.1916,0.2031,0.2081,0.2269,0.2302,0.2453,0.2521,0.2672,0.2693,0.2738,0.275,0.2593,0.2464,0.2627,0.2613,0.2602,0.2591,0.2308,0.2305,0.2302,0.23,0,0.163,0.1656,0.1689,0.1734,0.1769,0.1818,0.188,0.193,0.2057,0.2148,0.2276,0.236,0.2517,0.2505,0.2598,0.2588,0.2563,0.2538,0.2781,0.2302,0.226,0.2243,0.2244,0.2276,0.2278,0.228,0.2281,0.2282,0.1585,0.1592,0.1632,0.1668,0.1706,0.1738,0.1757,0.1832,0.1912,0.2022,0.2159,0.223,0.232,0.236,0.2338,0.2333,0.247,0.2354,0.2359,0.2368,0.2297,0.2256,0.226,0.2262,0.2264,0.2266,0.2267,0,0.1518,0.1537,0.1566,0.16,0.1608,0.1661,0.1717,0.1723,0.1768,0.1884,0.1971,0.1907,0.1949,0.2031,0.1999,0.2029,0.1972,0.1938,0.1841,0.187,0.1894,0.1793,0.1625,0.1623,0.162,0.1618,0,0,0.148,0.1478,0.1498,0.1493,0.1518,0.1511,0.1528,0.155,0.1613,0.1638,0.1677,0.1851,0.1975,0.1758,0.1766,0.1684,0.1744,0.1624,0.2151,0.2066,0.2085,0.2164,0.2048,0,0,0,0,0]},{"header":{"parameterUnit":"m.s-1","parameterCategory":2,"la1":30.2991,"la2":30.254,"lo1":-89.0895,"lo2":-89.0444,"dy":0.0017,"dx":0.0017,"nx":28,"ny":28,"refTime":"2024-10-21T09:00:00:Z","depth":"2","parameterNumber":3,"parameterNumberName":"V-component_of_CURRENTS"},"data":[0,0,0,0,0,0,0,0,0,0,0,0,0,0,0,0,0,0,0,0,0,0,0,0,0,0,0,0,0,0,0,0,0,0,0,0,0,0,0,0,0,0,0,0,0,0,0,0,0,0,0,0,0,0,0,0,0,0,-0.0108,-0.0108,0,-0.0162,-0.0163,-0.0163,-0.0202,-0.0202,-0.0202,-0.0202,-0.0278,-0.028,-0.0281,0,0,0,0,0,0,0,0,0,0,0,0,0,-0.0079,-0.008,-0.0108,-0.0108,-0.0109,-0.0162,-0.0163,-0.0164,-0.0202,-0.0202,-0.0202,-0.0202,-0.0277,-0.0279,-0.0282,0,0,0,0,0,0,0,0,0,0,0,0,0,-0.0109,-0.008,-0.0107,-0.0134,-0.0137,-0.0162,-0.0163,-0.0164,-0.0202,-0.0202,-0.0202,-0.0203,-0.0277,-0.0279,-0.0282,-0.0291,0,0,-0.029,-0.0291,0,0,0,0,0,0,0,0,-0.0107,-0.011,-0.0129,-0.0132,-0.0135,-0.0175,-0.0181,-0.0207,-0.0201,-0.0178,-0.0202,-0.0203,-0.0245,-0.025,-0.026,-0.0295,-0.0298,-0.029,-0.0292,-0.0293,-0.0294,0,0,0,0,0,0,0,-0.0105,-0.0108,-0.013,-0.013,-0.0133,-0.0157,-0.0162,-0.0186,-0.0209,-0.018,-0.0182,-0.0187,-0.0247,-0.0257,-0.0262,-0.0299,-0.029,-0.0293,-0.0294,-0.0295,-0.0354,-0.0354,0,0,0,0,0,0,-0.0094,-0.0106,-0.0128,-0.0131,-0.0121,-0.0157,-0.0162,-0.0162,-0.0209,-0.0216,-0.0187,-0.0189,-0.0253,-0.0259,-0.0265,-0.0288,-0.0293,-0.0296,-0.0297,-0.0354,-0.0354,-0.0354,0,0,0,0,0,0,-0.0093,-0.0096,-0.0126,-0.012,-0.0125,-0.0157,-0.0157,-0.0163,-0.0177,-0.0214,-0.0222,-0.0195,-0.0253,-0.0261,-0.0286,-0.0291,-0.0297,-0.0299,-0.0354,-0.0354,-0.0354,-0.0328,0,0,0,0,0,0,-0.0092,-0.0095,-0.0093,-0.0119,-0.0125,-0.0137,-0.0157,-0.0164,-0.0179,-0.0182,-0.0223,-0.023,-0.0254,-0.0281,-0.0288,-0.0294,-0.0301,-0.0354,-0.0354,-0.0354,-0.0328,-0.0327,-0.0325,0,0,0,0,0,-0.0091,-0.0083,-0.0093,-0.0096,-0.0121,-0.0136,-0.0142,-0.0167,-0.0179,-0.0181,-0.021,-0.0229,-0.0286,-0.0283,-0.0292,-0.0299,-0.0354,-0.0354,-0.0354,-0.0329,-0.0327,-0.0325,0,0,0,0,0,0,-0.0069,-0.0087,-0.0098,-0.0096,-0.0114,-0.0142,-0.0147,-0.0165,-0.0189,-0.0193,-0.0229,-0.0238,-0.0262,-0.0281,-0.0278,-0.0314,-0.0323,-0.0325,-0.0302,-0.03,-0.0298,-0.0291,-0.0304,0,0,0,0,0,-0.0063,-0.0063,-0.0085,-0.0084,-0.0091,-0.0119,-0.013,-0.0145,-0.0169,-0.0181,-0.021,-0.024,-0.0267,-0.0283,-0.0308,-0.0328,-0.0354,-0.0337,-0.0335,-0.0334,-0.0333,-0.0386,-0.039,-0.0354,-0.0354,-0.0354,0,0,-0.0055,-0.0065,-0.0065,-0.008,-0.0096,-0.0101,-0.0126,-0.0137,-0.0144,-0.0185,-0.0204,-0.0235,-0.027,-0.0293,-0.0306,-0.0311,-0.0354,-0.0333,-0.0332,-0.0333,-0.0387,-0.039,-0.0393,-0.0354,-0.0354,-0.0354,0,0,-0.0034,-0.0046,-0.0038,-0.005,-0.0069,-0.0087,-0.0088,-0.0116,-0.0131,-0.0153,-0.0184,-0.0217,-0.0255,-0.0285,-0.0304,-0.0307,-0.0342,-0.0314,-0.0303,-0.0355,-0.0358,-0.0362,-0.0385,-0.0391,-0.0314,-0.0314,-0.0314,0,-0.0023,-0.0016,-0.0039,-0.0035,-0.0041,-0.0077,-0.0071,-0.0092,-0.0126,-0.0136,-0.0153,-0.0222,-0.0253,-0.0289,-0.0291,-0.0305,-0.0331,-0.0309,-0.0353,-0.0357,-0.0361,-0.0385,-0.0392,-0.0313,-0.0313,-0.0313,-0.0314,0,0.0002,0.0006,0.001,0.0002,-0.0009,-0.0009,-0.0038,-0.0052,-0.0078,-0.0104,-0.0144,-0.0195,-0.0236,-0.0254,-0.0276,-0.0318,-0.0325,-0.0344,-0.0359,-0.0363,-0.0387,-0.0395,-0.0311,-0.0312,-0.0312,-0.0312,0,0,0.0034,0.003,0.0031,0.0039,0.0013,0.0012,-0.0003,-0.0022,-0.0026,-0.008,-0.0094,-0.0163,-0.0198,-0.0222,-0.0262,-0.0311,-0.0361,-0.0338,-0.0342,-0.0361,-0.0458,-0.0405,-0.0408,-0.0394,-0.0395,-0.0396,-0.0458,0,0.0063,0.0084,0.0068,0.0086,0.0096,0.0062,0.0055,0.0029,-0.0002,-0.0025,-0.0096,-0.0127,-0.0184,-0.0203,-0.0265,-0.0332,-0.0382,-0.0341,-0.0451,-0.0454,-0.0407,-0.0416,-0.04,-0.0449,-0.0466,-0.0467,-0.0468,0,0.0094,0.0106,0.0128,0.0138,0.0139,0.0135,0.0123,0.0112,0.0065,0.0039,-0.002,-0.0067,-0.0144,-0.019,-0.0329,-0.0301,-0.0378,-0.0438,-0.0442,-0.0408,-0.0415,-0.0451,-0.0463,-0.0481,-0.048,-0.0479,-0.0478,0,0.0136,0.0151,0.0173,0.0173,0.017,0.017,0.0161,0.0127,0.0136,0.0076,0.0077,-0.0032,-0.0065,-0.0198,-0.0313,-0.033,-0.0454,-0.0492,-0.0519,-0.0515,-0.053,-0.0524,-0.0597,-0.0597,-0.0597,-0.0597,-0.0597,0,0.0178,0.0198,0.0193,0.0205,0.0235,0.021,0.0231,0.0206,0.0189,0.0212,0.011,0.0116,-0.007,-0.0152,-0.0291,-0.041,-0.0441,-0.0515,-0.0532,-0.0516,-0.0508,-0.0562,-0.0557,-0.0599,-0.0599,-0.0598,-0.0598,0,0.0224,0.0219,0.0248,0.025,0.0256,0.0271,0.0291,0.0312,0.0278,0.0306,0.0295,0.0226,0.0128,-0.0041,-0.0227,-0.0347,-0.0488,-0.0523,-0.047,-0.0479,-0.0525,-0.0518,-0.0576,-0.0575,-0.0573,-0.0573,-0.0572,0,0.0249,0.0266,0.0286,0.031,0.0311,0.0335,0.0362,0.035,0.0383,0.0389,0.0419,0.0351,0.0321,0.0082,-0.0144,-0.0367,-0.0416,-0.0486,-0.052,-0.0514,-0.0525,-0.052,-0.0515,-0.0533,-0.0532,-0.0532,-0.0531,0,0.0297,0.0297,0.0323,0.0372,0.0403,0.0451,0.0488,0.0536,0.0539,0.057,0.0614,0.0594,0.0394,0.0192,-0.0089,-0.0245,-0.0453,-0.0472,-0.0505,-0.052,-0.0474,-0.0484,-0.0481,-0.0524,-0.0524,-0.0525,-0.0525,-0.0526,0.033,0.0358,0.039,0.0441,0.0485,0.0556,0.0611,0.0666,0.0739,0.0788,0.0767,0.0736,0.0503,0.0162,-0.0089,-0.0355,-0.0362,-0.048,-0.0483,-0.0488,-0.045,-0.0403,-0.0432,-0.0432,-0.0432,-0.0432,-0.0433,0,0.0377,0.0409,0.046,0.052,0.0583,0.0596,0.0695,0.0749,0.0848,0.0892,0.0914,0.0712,0.0488,0.0226,-0.016,-0.0391,-0.0445,-0.0458,-0.0491,-0.0496,-0.05,-0.0466,-0.0451,-0.0451,-0.0452,-0.0452,0,0,0.0402,0.0462,0.0488,0.0592,0.064,0.0734,0.0798,0.0872,0.0925,0.0973,0.0961,0.0899,0.058,0.0304,-0.0015,-0.0232,-0.0313,-0.0275,-0.0237,-0.0243,-0.0246,-0.0489,-0.0436,0,0,0,0,0]}],[{"header":{"parameterUnit":"m.s-1","parameterCategory":2,"la1":30.2991,"la2":30.254,"lo1":-89.0895,"lo2":-89.0444,"dy":0.0017,"dx":0.0017,"nx":28,"ny":28,"refTime":"2024-10-21T09:00:00:Z","depth":"4","parameterNumber":2,"parameterNumberName":"U-component_of_CURRENTS"},"data":[0,0,0,0,0,0,0,0,0,0,0,0,0,0,0,0,0,0,0,0,0,0,0,0,0,0,0,0,0,0,0,0,0,0,0,0,0,0,0,0,0,0,0,0,0,0,0,0,0,0,0,0,0,0,0,0,0,0,0.1165,0.1166,0,0.1229,0.123,0.123,0.128,0.1281,0.1282,0.1282,0.1348,0.1349,0.135,0,0,0,0,0,0,0,0,0,0,0,0,0,0.1078,0.1079,0.1165,0.1166,0.1167,0.1229,0.123,0.123,0.128,0.1281,0.1282,0.1282,0.1347,0.1348,0.135,0,0,0,0,0,0,0,0,0,0,0,0,0,0.1124,0.1079,0.1165,0.12,0.1204,0.1229,0.123,0.1231,0.128,0.1281,0.1282,0.1283,0.1347,0.1348,0.135,0.1342,0,0,0.1355,0.1356,0,0,0,0,0,0,0,0,0.1122,0.1127,0.1194,0.1198,0.1202,0.1249,0.1223,0.1268,0.128,0.125,0.1282,0.1283,0.1315,0.1319,0.1327,0.1345,0.1348,0.1356,0.1357,0.1357,0.1358,0,0,0,0,0,0,0,0.1118,0.1125,0.1189,0.1195,0.12,0.121,0.1218,0.1232,0.1275,0.1252,0.1257,0.1266,0.1317,0.1325,0.1329,0.1349,0.1355,0.1357,0.1358,0.1359,0.1443,0.1444,0,0,0,0,0,0,0.1113,0.1122,0.1187,0.1191,0.1165,0.1211,0.122,0.1232,0.1275,0.1283,0.1265,0.1268,0.1322,0.1327,0.1332,0.1392,0.1357,0.1359,0.136,0.1442,0.1443,0.1445,0,0,0,0,0,0,0.1111,0.1118,0.1184,0.1159,0.1168,0.1212,0.1225,0.1233,0.1269,0.1285,0.1293,0.1296,0.1323,0.1329,0.1371,0.1392,0.136,0.1361,0.144,0.1442,0.1444,0.1469,0,0,0,0,0,0,0.1108,0.1117,0.1136,0.1159,0.1169,0.1217,0.1225,0.1233,0.1272,0.1277,0.1314,0.1319,0.1324,0.1368,0.1373,0.1394,0.1363,0.1439,0.1441,0.1443,0.1467,0.1472,0.1476,0,0,0,0,0,0.1105,0.1123,0.1137,0.1145,0.119,0.1218,0.1225,0.1257,0.1273,0.1292,0.132,0.132,0.1386,0.1371,0.1375,0.1398,0.1438,0.1441,0.1443,0.1465,0.1471,0.1476,0,0,0,0,0,0,0.1097,0.1131,0.1146,0.1175,0.1203,0.1227,0.1253,0.1271,0.1308,0.1322,0.1334,0.1342,0.1385,0.139,0.1373,0.143,0.1412,0.1415,0.1427,0.1432,0.1437,0.144,0.1364,0,0,0,0,0,0.1102,0.1127,0.1156,0.1183,0.12,0.123,0.1251,0.1273,0.1302,0.1321,0.1346,0.1373,0.1394,0.1414,0.1432,0.1463,0.1469,0.1482,0.1486,0.149,0.1497,0.1522,0.153,0.1453,0.1453,0.1453,0,0,0.1106,0.113,0.1144,0.1184,0.121,0.1233,0.1246,0.1285,0.1309,0.1321,0.137,0.139,0.1406,0.1442,0.1462,0.1453,0.1516,0.1493,0.1496,0.1502,0.1526,0.1533,0.154,0.1455,0.1455,0.1455,0,0,0.1115,0.1149,0.1169,0.1194,0.1238,0.1256,0.1272,0.1312,0.1339,0.138,0.1395,0.1431,0.1467,0.1483,0.1492,0.1533,0.1537,0.1545,0.1573,0.1597,0.1604,0.1609,0.1628,0.1635,0.1549,0.1549,0.1549,0,0.112,0.1149,0.118,0.1203,0.1227,0.1267,0.1291,0.1319,0.1369,0.1394,0.1402,0.1472,0.1482,0.1524,0.1539,0.1542,0.1559,0.1549,0.1602,0.1608,0.1613,0.1631,0.1639,0.1551,0.155,0.155,0.155,0,0.1132,0.1167,0.1183,0.1225,0.1252,0.1285,0.1322,0.1362,0.1398,0.1426,0.1488,0.1512,0.1555,0.1562,0.1563,0.1612,0.1613,0.1602,0.1585,0.1622,0.1639,0.1646,0.1553,0.1552,0.1552,0.1551,0,0,0.1113,0.118,0.1187,0.1214,0.127,0.1292,0.1339,0.1389,0.1427,0.1481,0.1531,0.1571,0.1602,0.1616,0.1631,0.1652,0.1696,0.165,0.165,0.1663,0.1757,0.1683,0.1684,0.17,0.1702,0.1703,0.1754,0,0.1118,0.1161,0.1194,0.1241,0.1267,0.1318,0.1357,0.1409,0.1457,0.1515,0.156,0.1612,0.1618,0.1649,0.1675,0.1697,0.1717,0.1683,0.1725,0.1726,0.1651,0.169,0.1707,0.1759,0.1761,0.1762,0.1763,0,0.1113,0.1147,0.1191,0.1258,0.1275,0.131,0.1385,0.1426,0.1508,0.1548,0.1617,0.1656,0.1721,0.1705,0.1775,0.176,0.1764,0.1769,0.1771,0.1698,0.1665,0.1716,0.1776,0.1775,0.1774,0.1773,0.1773,0,0.1076,0.1143,0.1181,0.1203,0.1281,0.1318,0.1367,0.1444,0.149,0.1582,0.1629,0.1707,0.1762,0.179,0.1829,0.1807,0.189,0.1853,0.1789,0.1784,0.1823,0.1816,0.1884,0.1884,0.1884,0.1884,0.1884,0,0.1057,0.109,0.1174,0.1194,0.1248,0.1309,0.1374,0.1432,0.1521,0.158,0.1656,0.1711,0.1787,0.1848,0.1855,0.1863,0.1919,0.1804,0.1795,0.1833,0.1827,0.1828,0.182,0.1886,0.1886,0.1885,0.1885,0,0.1008,0.1063,0.1112,0.1201,0.1234,0.1275,0.1378,0.1422,0.1515,0.1596,0.1633,0.1741,0.1816,0.1882,0.1933,0.1893,0.1901,0.1883,0.1941,0.1933,0.1766,0.176,0.1799,0.1797,0.1795,0.1794,0.1793,0,0.0984,0.1007,0.1106,0.1141,0.1188,0.1259,0.1308,0.1409,0.1455,0.1601,0.1631,0.1746,0.1808,0.183,0.1894,0.1917,0.1891,0.1881,0.1797,0.1771,0.176,0.1756,0.1752,0.179,0.1789,0.1789,0.1788,0,0.0939,0.0986,0.103,0.1102,0.116,0.1214,0.1293,0.1317,0.1437,0.1533,0.1595,0.1642,0.1726,0.1771,0.1819,0.1823,0.188,0.1861,0.1863,0.1783,0.176,0.1749,0.1748,0.1782,0.1783,0.1784,0.1784,0,0.0911,0.0931,0.0999,0.1053,0.1122,0.1157,0.1202,0.1261,0.1319,0.1471,0.1489,0.161,0.1709,0.1725,0.1766,0.1779,0.1733,0.1662,0.1673,0.1681,0.1621,0.1572,0.1538,0,0,0,0,0,0.0877,0.0898,0.0946,0.1001,0.1063,0.1106,0.119,0.1235,0.1343,0.1354,0.1418,0.1487,0.1552,0.161,0.1598,0.1715,0.1744,0.1694,0.1667,0.1748,0.1755,0.1696,0,0,0,0,0,0,0.0857,0.0902,0.0924,0.0947,0.0974,0.1035,0.1085,0.1158,0.1163,0.1277,0.1315,0.1407,0.1486,0.1548,0.1573,0.1593,0.1548,0.1769,0.1766,0.1743,0.175,0.1756,0.1698,0,0,0,0,0]},{"header":{"parameterUnit":"m.s-1","parameterCategory":2,"la1":30.2991,"la2":30.254,"lo1":-89.0895,"lo2":-89.0444,"dy":0.0017,"dx":0.0017,"nx":28,"ny":28,"refTime":"2024-10-21T09:00:00:Z","depth":"4","parameterNumber":3,"parameterNumberName":"V-component_of_CURRENTS"},"data":[0,0,0,0,0,0,0,0,0,0,0,0,0,0,0,0,0,0,0,0,0,0,0,0,0,0,0,0,0,0,0,0,0,0,0,0,0,0,0,0,0,0,0,0,0,0,0,0,0,0,0,0,0,0,0,0,0,0,0.0056,0.0056,0,0.0004,0.0004,0.0003,-0.0028,-0.0028,-0.0028,-0.0028,-0.0099,-0.01,-0.0102,0,0,0,0,0,0,0,0,0,0,0,0,0,0.0101,0.01,0.0057,0.0056,0.0055,0.0004,0.0004,0.0003,-0.0028,-0.0028,-0.0028,-0.0028,-0.0098,-0.01,-0.0102,0,0,0,0,0,0,0,0,0,0,0,0,0,0.0068,0.01,0.0057,0.0034,0.0031,0.0004,0.0003,0.0003,-0.0028,-0.0028,-0.0028,-0.0028,-0.0097,-0.01,-0.0103,-0.0115,0,0,-0.0111,-0.0112,0,0,0,0,0,0,0,0,0.007,0.0067,0.0038,0.0035,0.0033,-0.0005,-0.0007,-0.0038,-0.0028,-0.0005,-0.0028,-0.0028,-0.0069,-0.0074,-0.0083,-0.0119,-0.0122,-0.0111,-0.0113,-0.0114,-0.0114,0,0,0,0,0,0,0,0.0072,0.0068,0.0036,0.0037,0.0034,0.0016,0.0012,-0.0013,-0.0036,-0.0007,-0.001,-0.0015,-0.0071,-0.0081,-0.0085,-0.0123,-0.0111,-0.0113,-0.0115,-0.0116,-0.017,-0.017,0,0,0,0,0,0,0.0081,0.0071,0.0037,0.0034,0.0051,0.0016,0.0011,0.0007,-0.0035,-0.0042,-0.0015,-0.0016,-0.0076,-0.0082,-0.0088,-0.0087,-0.0114,-0.0116,-0.0118,-0.017,-0.017,-0.017,0,0,0,0,0,0,0.0082,0.0078,0.0039,0.0051,0.0045,0.0015,0.0011,0.0006,-0.0007,-0.0041,-0.0048,-0.0022,-0.0076,-0.0084,-0.0107,-0.009,-0.0117,-0.012,-0.0171,-0.017,-0.017,-0.0096,0,0,0,0,0,0,0.0083,0.0079,0.0079,0.0052,0.0045,0.0028,0.0011,0.0005,-0.001,-0.0012,-0.0049,-0.0056,-0.0077,-0.0103,-0.011,-0.0094,-0.0122,-0.0171,-0.017,-0.017,-0.0099,-0.0094,-0.0089,0,0,0,0,0,0.0085,0.0087,0.0079,0.0075,0.0046,0.0029,0.0023,0.0001,-0.001,-0.0011,-0.0037,-0.0055,-0.0106,-0.0105,-0.0113,-0.0098,-0.0171,-0.0171,-0.017,-0.0101,-0.0095,-0.0089,0,0,0,0,0,0,0.0103,0.0083,0.0074,0.0069,0.0053,0.0024,0.0019,0.0002,-0.002,-0.0022,-0.0056,-0.0064,-0.0078,-0.0103,-0.0101,-0.0115,-0.0141,-0.0142,-0.0085,-0.008,-0.0075,-0.0054,-0.0124,0,0,0,0,0,0.0109,0.0107,0.0083,0.008,0.0074,0.0046,0.0036,0.0021,-0.0002,-0.0012,-0.0038,-0.0065,-0.0083,-0.0093,-0.0118,-0.0126,-0.0145,-0.0122,-0.0117,-0.0113,-0.0103,-0.0108,-0.0102,-0.0169,-0.0169,-0.0169,0,0,0.0115,0.0104,0.0102,0.0084,0.007,0.0072,0.004,0.0028,0.0034,-0.0016,-0.002,-0.0052,-0.0084,-0.009,-0.0098,-0.0107,-0.0107,-0.0112,-0.0108,-0.01,-0.0107,-0.0101,-0.0095,-0.0169,-0.0169,-0.0169,0,0,0.0134,0.0118,0.0127,0.0117,0.01,0.0087,0.0085,0.0058,0.005,0.0037,0.0008,-0.001,-0.0048,-0.0056,-0.0067,-0.0051,-0.0084,-0.0066,-0.0019,-0.0024,-0.0018,-0.0013,-0.0038,-0.0036,-0.0059,-0.0059,-0.0059,0,0.0142,0.015,0.0126,0.0134,0.0134,0.0098,0.0112,0.01,0.007,0.007,0.0044,0.0004,-0.0024,-0.0018,-0.0013,-0.0036,-0.0056,-0.0035,-0.0015,-0.001,-0.0006,-0.0034,-0.0032,-0.0055,-0.0056,-0.0056,-0.0056,0,0.0171,0.0177,0.0182,0.0186,0.0182,0.0184,0.0169,0.0164,0.0145,0.0131,0.0121,0.008,0.0058,0.0047,0.0021,0.0037,0.0007,-0.0009,-0.0023,0.0005,-0.0026,-0.0026,-0.005,-0.0051,-0.0052,-0.0053,0,0,0.019,0.0201,0.0203,0.0217,0.021,0.021,0.0225,0.0228,0.0238,0.0207,0.0218,0.0186,0.0155,0.014,0.0106,0.0102,0.0107,0.0062,0.006,0.0048,0.0079,0.0018,0.0011,0.0095,0.0095,0.0096,0.0043,0,0.0221,0.0253,0.025,0.0282,0.0297,0.0281,0.0299,0.0297,0.0282,0.0281,0.025,0.0237,0.0195,0.0179,0.0173,0.0116,0.0112,0.0122,0.0042,0.004,-0.0008,0.0012,0.0098,0.0043,0.0043,0.0043,0.0043,0,0.0251,0.027,0.0309,0.0335,0.0341,0.0355,0.0374,0.0384,0.0379,0.0366,0.0351,0.0313,0.0295,0.0254,0.0197,0.0201,0.0152,0.0111,0.0108,0.0029,-0.002,0.0008,0.0043,0.0043,0.0043,0.0043,0.0043,0,0.0276,0.031,0.0345,0.0352,0.0376,0.0394,0.0405,0.0409,0.0424,0.0415,0.0412,0.0382,0.0351,0.0303,0.0199,0.0202,0.0125,0.0119,0.0023,0.0017,0.0056,0.0051,0.0098,0.0098,0.0098,0.0098,0.0099,0,0.0305,0.0333,0.0359,0.0376,0.0419,0.0424,0.0461,0.0464,0.0477,0.0494,0.0453,0.0442,0.0361,0.0296,0.0221,0.0106,0.0139,0.0035,0.0005,0.0084,0.0084,0.0055,0.0051,0.0096,0.0097,0.0097,0.0098,0,0.0322,0.0341,0.038,0.0415,0.043,0.0456,0.0496,0.052,0.0523,0.0541,0.0539,0.0486,0.039,0.0293,0.0191,0.0119,0.0027,-0.0019,0.0055,0.0029,-0.0079,-0.0079,-0.0112,-0.0114,-0.0116,-0.0118,-0.0119,0,0.0333,0.0355,0.0403,0.0427,0.0443,0.0484,0.0513,0.0538,0.056,0.0559,0.0565,0.0484,0.0429,0.0244,0.0136,-0.0016,-0.0039,-0.0088,-0.0058,-0.0072,-0.0097,-0.0094,-0.0091,-0.0123,-0.0123,-0.0124,-0.0124,0,0.0348,0.0362,0.0392,0.0443,0.0479,0.0525,0.0565,0.0588,0.061,0.0616,0.058,0.0484,0.0366,0.0228,0.009,-0.0013,-0.0054,-0.011,-0.0105,-0.0077,-0.0086,-0.0108,-0.0103,-0.0132,-0.013,-0.013,-0.0129,0,0.0351,0.0371,0.0408,0.0452,0.0501,0.0547,0.0572,0.0593,0.0618,0.0618,0.0597,0.0482,0.0419,0.0227,0.0106,-0.0016,-0.0032,-0.0054,-0.0053,-0.0046,-0.002,-0.0021,-0.0065,0,0,0,0,0,0.035,0.0373,0.0415,0.0463,0.0512,0.0545,0.0598,0.062,0.0641,0.0621,0.0615,0.0506,0.0317,0.0235,0.0106,0.0063,-0.006,-0.0094,-0.0086,-0.0172,-0.0163,-0.015,0,0,0,0,0,0,0.0348,0.0386,0.041,0.0463,0.0499,0.0557,0.0594,0.0612,0.0602,0.0605,0.0508,0.0466,0.0283,0.0391,0.0101,0.0063,0.0048,-0.0179,-0.0182,-0.0176,-0.0169,-0.0162,-0.0146,0,0,0,0,0]}]]